AKDT,Max TemperatureF,Mean TemperatureF,Min TemperatureF,Max Dew PointF,MeanDew PointF,Min DewpointF,Max Humidity, Mean Humidity, Min Humidity, Max Sea Level PressureIn, Mean Sea Level PressureIn, Min Sea Level PressureIn, Max VisibilityMiles, Mean VisibilityMiles, Min VisibilityMiles, Max Wind SpeedMPH, Mean Wind SpeedMPH, Max Gust SpeedMPH,PrecipitationIn, CloudCover, Events, WindDirDegrees
2013-4-1,1,-2,-5,-2,-5,-7,91,86,79,30.54,30.50,30.43,10,8,2,21,11,,0.00,7,Snow,60
2013-4-2,0,-10,-17,-5,-15,-21,87,84,79,30.76,30.63,30.55,10,6,2,18,14,,0.00,2,,41
2013-4-3,-6,-14,-23,-10,-19,-26,91,84,77,30.90,30.86,30.76,10,10,8,8,6,,0.00,2,,35
2013-4-4,-7,-14,-20,-12,-20,-26,92,85,74,30.90,30.84,30.71,10,9,4,9,5,,0.00,5,,10
2013-4-5,-11,-18,-24,-16,-20,-27,92,83,77,30.70,30.59,30.50,10,8,1,9,6,,0.00,5,,24
2013-4-6,-20,-26,-32,-24,-29,-35,100,84,69,30.49,30.33,30.23,10,8,2,8,3,,0.00,2,,27
2013-4-7,-17,-27,-38,-20,-26,-35,84,78,70,30.22,30.14,30.07,10,6,1,12,4,,0.00,5,Snow,199
2013-4-8,-11,-18,-27,-16,-21,-32,87,81,74,30.07,30.03,30.00,10,6,1,18,10,,0.00,5,Snow,232
2013-4-9,-4,-18,-32,-7,-20,-34,87,80,70,30.00,29.81,29.68,10,3,1,10,5,,0.00,7,Snow,300
2013-4-10,0,-2,-4,-5,-6,-8,87,83,78,30.03,29.83,29.68,9,2,0,15,5,,0.00,8,Snow,307
2013-4-11,-5,-10,-16,-8,-14,-20,92,82,75,30.43,30.25,30.03,10,6,0,18,14,,0.00,3,Fog,268
2013-4-12,-2,-11,-20,-8,-17,-24,87,81,75,30.49,30.48,30.43,10,10,6,12,9,,0.00,1,,219
2013-4-13,0,-9,-18,-5,-11,-22,96,84,75,30.54,30.48,30.43,10,8,2,8,2,,0.00,3,Snow,35
2013-4-14,-2,-11,-20,-6,-15,-24,100,88,77,30.91,30.70,30.55,10,6,0,10,5,,0.00,6,Fog-Snow,250
2013-4-15,-7,-16,-24,-9,-16,-27,100,91,79,30.97,30.95,30.88,10,5,0,9,6,,0.00,4,Fog,209
2013-4-16,0,-12,-25,-5,-16,-29,96,85,76,30.86,30.76,30.68,10,7,1,12,7,,0.00,5,Snow,41
2013-4-17,0,-9,-18,-5,-13,-20,96,86,79,30.78,30.73,30.68,10,10,9,12,6,,0.00,0,,57
2013-4-18,0,-10,-20,-5,-15,-22,100,89,76,30.78,30.74,30.64,10,6,0,7,1,,0.00,0,Fog,184
2013-4-19,8,-4,-17,4,-8,-21,91,83,78,30.64,30.52,30.41,10,9,2,15,7,,0.00,0,,202
2013-4-20,14,6,-2,10,3,-6,92,85,79,30.41,30.36,30.34,10,10,10,17,13,,0.00,2,,235
2013-4-21,15,8,1,10,3,-1,95,91,84,30.39,30.37,30.35,10,9,1,22,15,,0.00,5,Snow,234
2013-4-22,27,14,1,24,11,-2,92,85,80,30.32,30.21,30.14,10,10,2,28,14,33,0.00,4,Snow,218
2013-4-23,28,26,23,25,23,19,96,89,81,30.14,30.04,29.94,10,5,1,34,28,41,0.00,7,Snow,241
2013-4-24,25,13,1,25,15,-1,100,92,79,30.35,30.03,29.90,10,4,1,30,23,37,0.00,7,Snow,280
2013-4-25,10,5,0,7,4,-4,92,87,84,30.37,30.26,30.05,10,6,1,16,15,,0.00,8,Snow,253
2013-4-26,9,4,0,5,4,-4,92,89,79,30.12,29.88,29.79,10,5,1,10,7,,0.00,7,Snow,265
2013-4-27,14,6,1,12,4,-2,96,88,79,30.28,30.22,30.12,10,6,1,21,10,,0.00,8,Snow,231
2013-4-28,18,15,12,16,14,12,100,92,86,30.15,30.12,30.09,7,2,0,20,16,24,0.00,8,Fog-Snow,278
2013-4-29,15,10,5,12,9,3,100,91,85,30.30,30.19,30.14,9,3,1,12,8,,0.00,8,Snow,292
2013-4-30,1,-4,-9,0,-5,-12,92,84,72,30.48,30.41,30.31,10,8,2,18,12,,0.00,4,Snow,38